When you browse on this site, cookies collect data to enhance your experience and personalize the content and advertising you see.
Visit our Privacy Policy to learn more. By continuing to use the site, you agree to this use of cookies and data.
  • en France
  • Liste des pays
  • À 7 jours
  • Température de l'eau
  • Carte satellitaire
  • Carte météo
  • Widgets météo
  • user-avatar
    Se connecter

    Météo par heure à Wien

    Ce jour, 19 Juin, Mercredi

    Heure Température Précipitation Vent Pression Humidité
    00:00 +22°C° 0 mm 1 m/s 742 mmHg 78%
    01:00 +21°C° 0 mm 1 m/s 742 mmHg 80%
    02:00 +21°C° 0 mm 1 m/s 742 mmHg 82%
    03:00 +20°C° 0 mm 1 m/s 742 mmHg 84%
    04:00 +20°C° 0 mm 1 m/s 742 mmHg 85%
    05:00 +21°C° 0 mm 1 m/s 742 mmHg 82%
    06:00 +22°C° 0 mm 1 m/s 742 mmHg 78%
    07:00 +23°C° 0 mm 1 m/s 742 mmHg 74%
    08:00 +25°C° 0 mm 1 m/s 742 mmHg 68%
    09:00 +27°C° 0 mm 2 m/s 741 mmHg 63%
    10:00 +28°C° 0 mm 2 m/s 741 mmHg 57%
    11:00 +29°C° 0 mm 2 m/s 741 mmHg 54%
    12:00 +30°C° 0 mm 3 m/s 741 mmHg 51%
    13:00 +31°C° 0 mm 3 m/s 741 mmHg 47%
    14:00 +31°C° 0.1 mm 3 m/s 740 mmHg 48%
    15:00 +31°C° 0.1 mm 3 m/s 740 mmHg 48%
    16:00 +31°C° 0.1 mm 3 m/s 740 mmHg 48%
    17:00 +29°C° 0.2 mm 2 m/s 740 mmHg 55%
    18:00 +28°C° 0.2 mm 2 m/s 740 mmHg 61%
    19:00 +26°C° 0.2 mm 2 m/s 740 mmHg 68%
    20:00 +25°C° 0.3 mm 2 m/s 740 mmHg 70%
    21:00 +24°C° 0.3 mm 1 m/s 740 mmHg 71%
    22:00 +23°C° 0.3 mm 1 m/s 740 mmHg 73%
    23:00 +22°C° 0.3 mm 1 m/s 740 mmHg 74%

    Demain, 20 Juin, Jeudi

    Heure Température Précipitation Vent Pression Humidité
    00:00 +22°C° 0.3 mm 1 m/s 740 mmHg 74%
    01:00 +21°C° 0.3 mm 1 m/s 740 mmHg 75%
    02:00 +21°C° 0.1 mm 1 m/s 740 mmHg 75%
    03:00 +20°C° 0.1 mm 1 m/s 740 mmHg 76%
    04:00 +20°C° 0.1 mm 1 m/s 740 mmHg 77%
    05:00 +21°C° 0 mm 1 m/s 740 mmHg 72%
    06:00 +23°C° 0 mm 1 m/s 740 mmHg 68%
    07:00 +24°C° 0 mm 1 m/s 740 mmHg 64%
    08:00 +26°C° 0 mm 1 m/s 740 mmHg 58%
    09:00 +27°C° 0 mm 1 m/s 740 mmHg 52%
    10:00 +29°C° 0 mm 1 m/s 740 mmHg 46%
    11:00 +30°C° 0 mm 1 m/s 740 mmHg 43%
    12:00 +31°C° 0 mm 1 m/s 740 mmHg 40%
    13:00 +32°C° 0 mm 1 m/s 740 mmHg 37%
    14:00 +32°C° 0 mm 1 m/s 739 mmHg 38%
    15:00 +32°C° 0 mm 2 m/s 739 mmHg 39%
    16:00 +32°C° 0 mm 2 m/s 739 mmHg 40%
    17:00 +30°C° 0 mm 2 m/s 739 mmHg 45%
    18:00 +29°C° 0 mm 1 m/s 739 mmHg 50%
    19:00 +28°C° 0 mm 1 m/s 740 mmHg 54%
    20:00 +26°C° 0.8 mm 2 m/s 740 mmHg 63%
    21:00 +24°C° 0.8 mm 3 m/s 740 mmHg 73%
    22:00 +21°C° 0.8 mm 4 m/s 741 mmHg 82%
    23:00 +20°C° 0.9 mm 4 m/s 741 mmHg 83%

    Après-demain, 21 Juin, Vendredi

    Heure Température Précipitation Vent Pression Humidité
    00:00 +20°C° 0.9 mm 4 m/s 741 mmHg 84%
    01:00 +19°C° 0.9 mm 4 m/s 742 mmHg 86%
    02:00 +19°C° 0.6 mm 4 m/s 742 mmHg 85%
    03:00 +19°C° 0.6 mm 4 m/s 742 mmHg 85%
    04:00 +19°C° 0.6 mm 3 m/s 742 mmHg 85%
    05:00 +20°C° 0.2 mm 3 m/s 742 mmHg 82%
    06:00 +20°C° 0.2 mm 4 m/s 742 mmHg 79%
    07:00 +21°C° 0.2 mm 4 m/s 743 mmHg 76%
    08:00 +22°C° 0 mm 4 m/s 743 mmHg 71%
    09:00 +25°C° 0 mm 4 m/s 743 mmHg 66%
    10:00 +26°C° 0 mm 4 m/s 743 mmHg 61%
    11:00 +27°C° 0 mm 4 m/s 743 mmHg 58%
    12:00 +28°C° 0 mm 4 m/s 743 mmHg 56%
    13:00 +29°C° 0 mm 4 m/s 742 mmHg 53%
    14:00 +29°C° 0.2 mm 4 m/s 742 mmHg 54%
    15:00 +28°C° 0.2 mm 4 m/s 742 mmHg 56%
    16:00 +28°C° 0.2 mm 4 m/s 742 mmHg 57%
    17:00 +27°C° 0.1 mm 4 m/s 742 mmHg 61%
    18:00 +26°C° 0.1 mm 3 m/s 742 mmHg 66%
    19:00 +25°C° 0.1 mm 3 m/s 742 mmHg 70%
    20:00 +24°C° 0 mm 2 m/s 742 mmHg 73%
    21:00 +23°C° 0 mm 2 m/s 743 mmHg 76%
    22:00 +21°C° 0 mm 2 m/s 743 mmHg 79%
    23:00 +21°C° 0 mm 2 m/s 743 mmHg 80%

    22 Juin, Samedi

    Heure Température Précipitation Vent Pression Humidité
    00:00 +20°C° 0 mm 2 m/s 743 mmHg 81%
    01:00 +20°C° 0 mm 2 m/s 743 mmHg 81%
    02:00 +19°C° 0 mm 2 m/s 742 mmHg 82%
    03:00 +19°C° 0 mm 2 m/s 742 mmHg 82%
    04:00 +19°C° 0 mm 2 m/s 742 mmHg 83%
    05:00 +19°C° 0 mm 2 m/s 742 mmHg 81%
    06:00 +20°C° 0 mm 2 m/s 743 mmHg 78%
    07:00 +21°C° 0 mm 3 m/s 743 mmHg 76%
    08:00 +22°C° 0 mm 3 m/s 743 mmHg 72%
    09:00 +25°C° 0 mm 3 m/s 743 mmHg 67%
    10:00 +26°C° 0 mm 4 m/s 742 mmHg 63%
    11:00 +26°C° 0 mm 4 m/s 742 mmHg 62%
    12:00 +27°C° 0 mm 4 m/s 742 mmHg 61%
    13:00 +28°C° 0 mm 3 m/s 742 mmHg 59%
    14:00 +28°C° 0.1 mm 3 m/s 741 mmHg 61%
    15:00 +28°C° 0.1 mm 3 m/s 741 mmHg 63%
    16:00 +27°C° 0.1 mm 3 m/s 741 mmHg 64%
    17:00 +26°C° 3.1 mm 2 m/s 741 mmHg 70%
    18:00 +24°C° 3.1 mm 2 m/s 740 mmHg 75%
    19:00 +23°C° 3.1 mm 1 m/s 740 mmHg 80%
    20:00 +22°C° 0.4 mm 1 m/s 741 mmHg 82%
    21:00 +21°C° 0.4 mm 2 m/s 741 mmHg 84%
    22:00 +20°C° 0.4 mm 2 m/s 741 mmHg 85%
    23:00 +20°C° 0.1 mm 2 m/s 741 mmHg 86%

    23 Juin, Dimanche

    Heure Température Précipitation Vent Pression Humidité
    00:00 +20°C° 0.1 mm 3 m/s 741 mmHg 86%
    01:00 +19°C° 0.1 mm 3 m/s 742 mmHg 86%
    02:00 +19°C° 0 mm 4 m/s 742 mmHg 87%
    03:00 +19°C° 0 mm 4 m/s 742 mmHg 88%
    04:00 +18°C° 0 mm 4 m/s 742 mmHg 89%
    05:00 +19°C° 0 mm 5 m/s 742 mmHg 86%
    06:00 +20°C° 0 mm 5 m/s 743 mmHg 83%
    07:00 +21°C° 0 mm 5 m/s 743 mmHg 80%
    08:00 +22°C° 0.1 mm 5 m/s 743 mmHg 76%
    09:00 +23°C° 0.1 mm 5 m/s 743 mmHg 72%
    10:00 +23°C° 0.1 mm 5 m/s 744 mmHg 68%
    11:00 +25°C° 0.2 mm 5 m/s 744 mmHg 63%
    12:00 +26°C° 0.2 mm 5 m/s 744 mmHg 59%
    13:00 +27°C° 0.2 mm 5 m/s 744 mmHg 55%
    14:00 +27°C° 0.1 mm 5 m/s 744 mmHg 54%
    15:00 +27°C° 0.1 mm 5 m/s 744 mmHg 53%
    16:00 +28°C° 0.1 mm 4 m/s 744 mmHg 53%
    17:00 +26°C° 0.1 mm 4 m/s 744 mmHg 60%
    18:00 +25°C° 0.1 mm 4 m/s 745 mmHg 67%
    19:00 +22°C° 0.1 mm 3 m/s 745 mmHg 74%
    20:00 +21°C° 0.1 mm 3 m/s 746 mmHg 76%
    21:00 +20°C° 0.1 mm 3 m/s 746 mmHg 78%
    22:00 +18°C° 0.1 mm 2 m/s 747 mmHg 80%
    23:00 +18°C° 0 mm 2 m/s 747 mmHg 80%

    24 Juin, Lundi

    Heure Température Précipitation Vent Pression Humidité
    00:00 +18°C° 0 mm 2 m/s 747 mmHg 80%
    01:00 +17°C° 0 mm 2 m/s 748 mmHg 80%
    02:00 +16°C° 0 mm 2 m/s 748 mmHg 82%
    03:00 +16°C° 0 mm 2 m/s 748 mmHg 83%
    04:00 +15°C° 0 mm 2 m/s 748 mmHg 85%
    05:00 +16°C° 0 mm 2 m/s 748 mmHg 79%
    06:00 +17°C° 0 mm 2 m/s 748 mmHg 74%
    07:00 +18°C° 0 mm 2 m/s 749 mmHg 68%
    08:00 +19°C° 0 mm 3 m/s 749 mmHg 62%
    09:00 +21°C° 0 mm 3 m/s 749 mmHg 56%
    10:00 +22°C° 0 mm 3 m/s 749 mmHg 50%
    11:00 +24°C° 0 mm 3 m/s 749 mmHg 48%
    12:00 +25°C° 0 mm 3 m/s 749 mmHg 47%
    13:00 +26°C° 0 mm 3 m/s 749 mmHg 45%
    14:00 +26°C° 0 mm 3 m/s 749 mmHg 45%
    15:00 +26°C° 0 mm 3 m/s 749 mmHg 46%
    16:00 +26°C° 0 mm 3 m/s 748 mmHg 46%
    17:00 +25°C° 0 mm 2 m/s 749 mmHg 52%
    18:00 +24°C° 0 mm 2 m/s 749 mmHg 57%
    19:00 +23°C° 0 mm 1 m/s 749 mmHg 62%
    20:00 +22°C° 0 mm 1 m/s 749 mmHg 66%
    21:00 +21°C° 0 mm 1 m/s 750 mmHg 69%
    22:00 +20°C° 0 mm 1 m/s 750 mmHg 72%
    23:00 +19°C° 0 mm 1 m/s 750 mmHg 71%
    Voir plus